Location: Blairvadach
(56.2780°N, 6.9720°W)
Time: 07:37:42
(UTC+00:00)

Envisat - Pass Details

Date: 17 November 2019
Orbit: 764 x 766 km, 98.1° (Epoch: 08 December)

Event Time Altitude Azimuth Distance (km) Brightness Sun altitude
Rises 05:31:23 0° 29° (NNE) 3,246 6.6 -21.3°
Reaches altitude 10° 05:36:30 10° 73° (ENE) 2,311 6.5 -20.6°
Maximum altitude 05:37:01 10° 79° (ENE) 2,300 6.6 -20.6°
Drops below altitude 10° 05:37:31 10° 85° (E) 2,309 6.6 -20.5°
Sets 05:42:35 0° 129° (SE) 3,226 7.2 -19.8°
